When you browse on this site, cookies collect data to enhance your experience and personalize the content and advertising you see.
Visit our Privacy Policy to learn more. By continuing to use the site, you agree to this use of cookies and data.
  • In Schweiz
  • Länderverzeichnis
  • Für 7 Tage
  • Wassertemperatur
  • Satellitenkarten
  • Wetterkarte
  • Widgets
  • user-avatar
    Anmelden

    Stündliche Wetter Kanje

    Heute, 21 November, Mittwoch

    Zeit Temperatur Niederschläge Wind Luftdruck Luftfeuchtigkeit
    00:00 +24°C° 0.1 mm 3 m/S 650 mmHg 51%
    01:00 +23°C° 0.1 mm 2 m/S 650 mmHg 51%
    02:00 +23°C° 0 mm 2 m/S 649 mmHg 49%
    03:00 +21°C° 0 mm 2 m/S 649 mmHg 44%
    04:00 +21°C° 0 mm 3 m/S 649 mmHg 39%
    05:00 +20°C° 0 mm 3 m/S 649 mmHg 35%
    06:00 +21°C° 0 mm 3 m/S 650 mmHg 31%
    07:00 +23°C° 0 mm 4 m/S 650 mmHg 27%
    08:00 +25°C° 0 mm 4 m/S 651 mmHg 23%
    09:00 +27°C° 0 mm 4 m/S 651 mmHg 19%
    10:00 +29°C° 0 mm 4 m/S 652 mmHg 15%
    11:00 +31°C° 0 mm 3 m/S 652 mmHg 10%
    12:00 +33°C° 0 mm 4 m/S 652 mmHg 9%
    13:00 +34°C° 0 mm 5 m/S 651 mmHg 8%
    14:00 +35°C° 0 mm 5 m/S 651 mmHg 7%
    15:00 +35°C° 0 mm 5 m/S 651 mmHg 7%
    16:00 +35°C° 0 mm 5 m/S 650 mmHg 6%
    17:00 +34°C° 0 mm 6 m/S 650 mmHg 6%
    18:00 +32°C° 0 mm 5 m/S 650 mmHg 7%
    19:00 +29°C° 0 mm 4 m/S 650 mmHg 8%
    20:00 +27°C° 0 mm 3 m/S 649 mmHg 9%
    21:00 +26°C° 0 mm 3 m/S 650 mmHg 10%
    22:00 +25°C° 0 mm 3 m/S 650 mmHg 11%
    23:00 +24°C° 0 mm 3 m/S 650 mmHg 12%

    Morgen, 22 November, Donnerstag

    Zeit Temperatur Niederschläge Wind Luftdruck Luftfeuchtigkeit
    00:00 +22°C° 0 mm 3 m/S 650 mmHg 14%
    01:00 +21°C° 0 mm 4 m/S 650 mmHg 15%
    02:00 +20°C° 0 mm 4 m/S 649 mmHg 17%
    03:00 +20°C° 0 mm 4 m/S 649 mmHg 18%
    04:00 +19°C° 0 mm 3 m/S 649 mmHg 18%
    05:00 +18°C° 0 mm 3 m/S 649 mmHg 19%
    06:00 +20°C° 0 mm 3 m/S 650 mmHg 17%
    07:00 +22°C° 0 mm 4 m/S 651 mmHg 16%
    08:00 +26°C° 0 mm 4 m/S 651 mmHg 14%
    09:00 +28°C° 0 mm 3 m/S 652 mmHg 12%
    10:00 +30°C° 0 mm 2 m/S 652 mmHg 11%
    11:00 +32°C° 0 mm 2 m/S 652 mmHg 9%
    12:00 +33°C° 0 mm 1 m/S 652 mmHg 8%
    13:00 +34°C° 0 mm 1 m/S 652 mmHg 7%
    14:00 +36°C° 0 mm 1 m/S 651 mmHg 6%
    15:00 +35°C° 0 mm 1 m/S 651 mmHg 6%
    16:00 +36°C° 0 mm 2 m/S 650 mmHg 6%
    17:00 +36°C° 0 mm 2 m/S 650 mmHg 5%
    18:00 +34°C° 0 mm 2 m/S 650 mmHg 6%
    19:00 +31°C° 0 mm 2 m/S 649 mmHg 7%
    20:00 +29°C° 0 mm 2 m/S 649 mmHg 8%
    21:00 +28°C° 0 mm 2 m/S 650 mmHg 9%
    22:00 +27°C° 0 mm 1 m/S 650 mmHg 10%
    23:00 +26°C° 0 mm 1 m/S 650 mmHg 10%

    übermorgen, 23 November, Freitag

    Zeit Temperatur Niederschläge Wind Luftdruck Luftfeuchtigkeit
    00:00 +25°C° 0 mm 2 m/S 650 mmHg 14%
    01:00 +25°C° 0 mm 3 m/S 650 mmHg 18%
    02:00 +24°C° 0 mm 3 m/S 650 mmHg 22%
    03:00 +23°C° 0 mm 5 m/S 650 mmHg 35%
    04:00 +22°C° 0 mm 6 m/S 650 mmHg 47%
    05:00 +21°C° 0 mm 7 m/S 650 mmHg 60%
    06:00 +22°C° 0 mm 8 m/S 651 mmHg 60%
    07:00 +22°C° 0 mm 8 m/S 651 mmHg 60%
    08:00 +22°C° 0 mm 8 m/S 652 mmHg 61%
    09:00 +23°C° 0 mm 8 m/S 652 mmHg 56%
    10:00 +24°C° 0 mm 8 m/S 652 mmHg 52%
    11:00 +27°C° 0 mm 8 m/S 653 mmHg 48%
    12:00 +28°C° 0 mm 7 m/S 653 mmHg 44%
    13:00 +29°C° 0 mm 6 m/S 652 mmHg 40%
    14:00 +30°C° 0 mm 6 m/S 652 mmHg 37%
    15:00 +30°C° 0 mm 5 m/S 652 mmHg 35%
    16:00 +32°C° 0 mm 4 m/S 651 mmHg 33%
    17:00 +31°C° 0 mm 3 m/S 651 mmHg 31%
    18:00 +29°C° 0.1 mm 4 m/S 651 mmHg 37%
    19:00 +28°C° 0.1 mm 5 m/S 651 mmHg 42%
    20:00 +26°C° 0.1 mm 6 m/S 651 mmHg 48%
    21:00 +24°C° 0.6 mm 6 m/S 652 mmHg 52%
    22:00 +23°C° 0.6 mm 6 m/S 652 mmHg 56%
    23:00 +22°C° 0.6 mm 6 m/S 652 mmHg 60%

    24 November, Samstag

    Zeit Temperatur Niederschläge Wind Luftdruck Luftfeuchtigkeit
    00:00 +22°C° 0 mm 5 m/S 652 mmHg 61%
    01:00 +22°C° 0 mm 5 m/S 651 mmHg 61%
    02:00 +22°C° 0 mm 4 m/S 650 mmHg 62%
    03:00 +21°C° 0 mm 4 m/S 650 mmHg 66%
    04:00 +20°C° 0 mm 4 m/S 650 mmHg 70%
    05:00 +20°C° 0 mm 4 m/S 650 mmHg 75%
    06:00 +21°C° 0 mm 4 m/S 651 mmHg 70%
    07:00 +22°C° 0 mm 5 m/S 652 mmHg 65%
    08:00 +23°C° 0 mm 6 m/S 653 mmHg 60%
    09:00 +26°C° 0 mm 6 m/S 653 mmHg 52%
    10:00 +28°C° 0 mm 5 m/S 654 mmHg 43%
    11:00 +30°C° 0 mm 5 m/S 654 mmHg 35%
    12:00 +33°C° 0 mm 4 m/S 653 mmHg 30%
    13:00 +34°C° 0 mm 4 m/S 653 mmHg 25%
    14:00 +35°C° 0 mm 3 m/S 652 mmHg 21%
    15:00 +35°C° 0 mm 3 m/S 652 mmHg 20%
    16:00 +34°C° 0 mm 3 m/S 652 mmHg 19%
    17:00 +34°C° 0 mm 3 m/S 651 mmHg 18%
    18:00 +33°C° 0 mm 3 m/S 651 mmHg 20%
    19:00 +31°C° 0 mm 3 m/S 651 mmHg 22%
    20:00 +30°C° 0 mm 3 m/S 651 mmHg 23%
    21:00 +29°C° 0 mm 3 m/S 651 mmHg 26%
    22:00 +28°C° 0 mm 3 m/S 651 mmHg 29%
    23:00 +27°C° 0 mm 3 m/S 652 mmHg 32%

    25 November, Sonntag

    Zeit Temperatur Niederschläge Wind Luftdruck Luftfeuchtigkeit
    00:00 +26°C° 0 mm 3 m/S 651 mmHg 35%
    01:00 +26°C° 0 mm 3 m/S 651 mmHg 38%
    02:00 +25°C° 0 mm 4 m/S 651 mmHg 42%
    03:00 +25°C° 0 mm 4 m/S 651 mmHg 45%
    04:00 +23°C° 0 mm 4 m/S 651 mmHg 48%
    05:00 +23°C° 0 mm 5 m/S 651 mmHg 50%
    06:00 +25°C° 0 mm 5 m/S 651 mmHg 48%
    07:00 +26°C° 0 mm 6 m/S 652 mmHg 46%
    08:00 +27°C° 0 mm 6 m/S 653 mmHg 44%
    09:00 +29°C° 0 mm 5 m/S 653 mmHg 39%
    10:00 +32°C° 0 mm 5 m/S 653 mmHg 33%
    11:00 +34°C° 0 mm 4 m/S 654 mmHg 28%
    12:00 +34°C° 0.1 mm 4 m/S 653 mmHg 27%
    13:00 +34°C° 0.1 mm 3 m/S 652 mmHg 26%
    14:00 +34°C° 0.1 mm 2 m/S 651 mmHg 25%
    15:00 +34°C° 0.1 mm 2 m/S 651 mmHg 25%
    16:00 +34°C° 0.1 mm 2 m/S 650 mmHg 26%
    17:00 +32°C° 0.1 mm 2 m/S 650 mmHg 26%
    18:00 +31°C° 0 mm 2 m/S 650 mmHg 29%
    19:00 +30°C° 0 mm 2 m/S 649 mmHg 31%
    20:00 +28°C° 0 mm 2 m/S 649 mmHg 34%
    21:00 +28°C° 0.2 mm 2 m/S 650 mmHg 37%
    22:00 +27°C° 0.2 mm 2 m/S 650 mmHg 39%
    23:00 +26°C° 0.2 mm 3 m/S 650 mmHg 42%

    26 November, Montag

    Zeit Temperatur Niederschläge Wind Luftdruck Luftfeuchtigkeit
    00:00 +26°C° 0.1 mm 3 m/S 650 mmHg 48%
    01:00 +25°C° 0.1 mm 3 m/S 649 mmHg 53%
    02:00 +23°C° 0.1 mm 4 m/S 648 mmHg 59%
    03:00 +22°C° 0.1 mm 4 m/S 648 mmHg 61%
    04:00 +22°C° 0.1 mm 5 m/S 648 mmHg 63%
    05:00 +21°C° 0.1 mm 5 m/S 648 mmHg 65%
    06:00 +23°C° 0 mm 6 m/S 649 mmHg 57%
    07:00 +26°C° 0 mm 7 m/S 650 mmHg 50%
    08:00 +27°C° 0 mm 7 m/S 651 mmHg 43%
    09:00 +30°C° 0 mm 7 m/S 651 mmHg 37%
    10:00 +33°C° 0 mm 6 m/S 651 mmHg 31%
    11:00 +35°C° 0 mm 6 m/S 651 mmHg 25%
    12:00 +35°C° 0 mm 5 m/S 650 mmHg 25%
    13:00 +35°C° 0 mm 5 m/S 650 mmHg 24%
    14:00 +35°C° 0 mm 4 m/S 649 mmHg 23%
    15:00 +35°C° 0 mm 5 m/S 649 mmHg 23%
    16:00 +36°C° 0 mm 5 m/S 648 mmHg 23%
    17:00 +36°C° 0 mm 5 m/S 648 mmHg 23%
    18:00 +34°C° 0.1 mm 4 m/S 648 mmHg 26%
    19:00 +32°C° 0.1 mm 4 m/S 648 mmHg 29%
    20:00 +30°C° 0.1 mm 3 m/S 648 mmHg 32%
    21:00 +28°C° 0.7 mm 3 m/S 648 mmHg 38%
    22:00 +27°C° 0.7 mm 3 m/S 648 mmHg 44%
    23:00 +26°C° 0.7 mm 4 m/S 648 mmHg 49%
    Mehr zeigen